Location: Fayetteville
(35.0530°N, 78.8790°W)
Time: 16:41:48
(UTC-05:00)

ISS - Visible Passes

Search period start: 25 November 2014 00:00
Search period end: 05 December 2014 00:00
Orbit: 407 x 417 km, 51.6° (Epoch: 25 November)

Date Brightness Start Highest point End Pass type
(mag) Time Alt. Az. Time Alt. Az. Time Alt. Az.
25 Nov -0.5 05:17:15 11° NNE 05:17:53 11° NNE 05:18:55 10° NE visible
26 Nov -2.1 06:02:27 12° NNW 06:05:11 37° NE 06:08:16 10° ESE visible
27 Nov -1.3 05:14:48 21° NNE 05:15:10 22° NNE 05:17:48 10° E visible
28 Nov -3.3 05:59:56 22° NW 06:01:55 70° SW 06:05:11 10° SE visible
29 Nov -2.6 05:12:13 51° ENE 05:12:13 51° ENE 05:15:04 10° ESE visible
30 Nov -1.8 05:57:19 20° WSW 05:58:02 21° SW 06:00:37 10° S visible
01 Dec -1.3 05:09:33 22° SSE 05:09:33 22° SSE 05:10:59 10° SSE visible
04 Dec -0.4 19:11:53 10° SSW 19:12:17 13° SSW 19:12:17 13° SSW visible
